Location: Newark
(41.8083°N, 72.2500°W)
Time: 11:37:20
(UTC+00:00)

Explorer 11/Cluster Stage 4 - Pass Details

Date: 13 December 2021
Orbit: 467 x 1255 km, 28.8° (Epoch: 24 January)

Event Time Altitude Azimuth Distance (km) Brightness Sun altitude
Rises 06:45:22 0° 247° (WSW) 2,951 - -58.5°
Reaches altitude 10° 06:48:46 10° 220° (SW) 2,204 - -57.9°
Maximum altitude 06:51:16 14° 191° (SSW) 2,091 - -57.5°
Drops below altitude 10° 06:54:00 10° 163° (SSE) 2,462 - -57.0°
Sets 06:58:14 0° 139° (SE) 3,607 - -56.3°
